Flag for Austria Weather past 2 weeks in Bruck an der Leitha, Lower Austria, Austria

Now
80 °F

Passing clouds.


Feels Like: 80 °F
Forecast: 63 / 94 °F
Wind: N/A

Location: Wien / Schwechat-Flughafen

Current Time: Jul 4, 2015 at 9:56:24 PM

Latest Report: Jul 4, 2015 at 9:00 PM


Visibility: 28 mi

Pressure: 30.14 "Hg

Humidity: 43%

Dew point: 55 °F

Location of Bruck an der LeithaLocation

Historic Weather in Bruck an der Leitha — Graph

°F

Bruck an der Leitha temperature yesterday

Maximum temperature yesterday: 86 °F (at 4:00 PM)
Minimum temperature yesterday: 64 °F (at 3:00 AM)
Average temperature yesterday: 76 °F

Past Weeks' High & Low Weather Summary

 TemperatureHumidityPressure
High88 °F (Jul 4, 6:00 PM)97% (Jun 25, 3:00 AM)30.31 "Hg (Jun 25, 3:00 AM)
Low47 °F (Jun 25, 5:00 AM)24% (Jul 4, 5:00 PM)29.76 "Hg (Jun 23, 4:00 AM)
Average67 °F61%30.10 "Hg
* Reported Jun 19 8:00 PM — Jul 4 8:00 PM, Bruck an der Leitha, Weather by CustomWeather, © 2015

Note: Actual official high and low records may vary slightly from our data, if they occured in-between our weather recording intervals... More about our weather records

Advertising

Bruck an der Leitha weather history for previous 24 hours

 ConditionsComfort  
Time TempWeatherWind HumidityBarometerVisibility
8:00 PM
Sat, Jul 4
84 °FPassing clouds.N/A35%30.13 "Hg22 mi
7:00 PM87 °FPassing clouds.N/A29%30.13 "Hg19 mi
6:00 PM88 °FPassing clouds.3 mph27%30.13 "Hg25 mi
5:00 PM88 °FPassing clouds.3 mph24%30.14 "Hg19 mi
4:00 PM88 °FPassing clouds.5 mph28%30.16 "Hg19 mi
3:00 PM88 °FPassing clouds.5 mph29%30.16 "Hg12 mi
2:00 PM87 °FScattered clouds.5 mph29%30.18 "Hg18 mi
1:00 PM86 °FScattered clouds.6 mph30%30.20 "Hg15 mi
12:00 PM86 °FScattered clouds.7 mph30%30.21 "Hg17 mi
11:00 AM84 °FScattered clouds.6 mph35%30.22 "Hg19 mi
10:00 AM82 °FScattered clouds.6 mph41%30.23 "Hg19 mi
9:00 AM78 °FScattered clouds.6 mph48%30.23 "Hg19 mi
8:00 AM75 °FScattered clouds.3 mph55%30.24 "Hg15 mi
7:00 AM70 °FScattered clouds.N/A66%30.24 "Hg19 mi
6:00 AM65 °FScattered clouds.N/A76%30.25 "Hg19 mi
5:00 AM66 °FPassing clouds.N/A74%30.25 "Hg22 mi
4:00 AM68 °FPassing clouds.5 mph62%30.25 "Hg22 mi
3:00 AM69 °FPassing clouds.5 mph61%30.26 "Hg25 mi
2:00 AM70 °FPassing clouds.5 mph64%30.27 "Hg25 mi
1:00 AM69 °FPassing clouds.5 mph69%30.29 "Hg25 mi
12:00 AM70 °FPassing clouds.N/A64%30.29 "Hg22 mi
11:00 PM
Fri, Jul 3
73 °FPassing clouds.N/A57%30.29 "Hg11 mi
10:00 PM74 °FPassing clouds.N/A55%30.29 "Hg25 mi
9:00 PM78 °FPassing clouds.N/A49%30.27 "Hg22 mi
Weather by CustomWeather, © 2015

See weather overviewHow to use our weather pages